Regional Weather Roundup
Issued by NWS

Home | Current Version | Previous Version | Graphics & Text | Print | Product List | Glossary On
Versions: 1 2 3 4 5 6 7 8 9 10 11 12 13 14 15 16 17 18 19 20 21 22 23 24 25 26 27
000
ASUS45 KBOU 230107
RWRCO

WEATHER ROUNDUP FOR COLORADO
NATIONAL WEATHER SERVICE DENVER/BOULDER CO
700 PM MDT MON MAY 22 2017

NOTE: "FAIR" INDICATES FEW OR NO CLOUDS BELOW 12000 FEET WITH NO
SIGNIFICANT WEATHER AND/OR OBSTRUCTIONS TO VISIBILITY.

COZ001>005-013-030-031-230200-
...NORTHWEST COLORADO...

CITY           SKY/WX    TMP DP  RH WIND       PRES   REMARKS
CRAIG          CLOUDY    48  35  60 E13       30.24R
HAYDEN         PTSUNNY   43  34  70 E8        30.25R
MEEKER         CLOUDY    49  41  74 NE12G23   30.22R
RABBIT EARS PA CLOUDY    30  30 100 N7        30.32R VSB<1/4 WCI  23
STEAMBOAT SPGS PTSUNNY   41  36  83 W7        30.24F
WALDEN           N/A     34  32  93 NW13      30.31R VSB 1   WCI  25
$$

COZ006>008-011-230200-
...WEST CENTRAL VALLEYS...

CITY           SKY/WX    TMP DP  RH WIND       PRES   REMARKS
GRAND JUNCTION FAIR      72  28  19 W7        30.05F
MONTROSE       PTSUNNY   66  27  23 N10       30.13F
EAGLE          LGT RAIN  50  37  62 NW17G26   30.24R
RIFLE          CLOUDY    58  37  45 N21G33    30.16R
DELTA          PTSUNNY   74  22  14 W13G23    30.07F
NUCLA          FAIR      70  25  18 W14       30.17S
$$

COZ017>023-064>068-230200-
...SOUTHWEST COLORADO...

CITY           SKY/WX    TMP DP  RH WIND       PRES   REMARKS
DURANGO        FAIR      67  22  18 NW18G25   30.08R
CORTEZ         FAIR      70  23  17 NW15G22   30.11S
PAGOSA SPRINGS FAIR      65  13  13 NW9       30.12S
TELLURIDE      PTSUNNY   52  24  34 CALM      30.29R
WOLF CREEK PAS FAIR      39  14  35 NW5G16    30.40R
$$

COZ009-010-012-014-032>034-037-058>063-230200-
...CENTRAL COLORADO...

CITY           SKY/WX    TMP DP  RH WIND       PRES   REMARKS
ASPEN          PTSUNNY   48  36  63 S8        30.21S
BUENA VISTA    CLOUDY    54  28  36 NW22      30.18R
COPPER MTN     SNOW      32  28  86 W15G21    30.34S VSB<1/4 WCI  22
BERTHOUD PASS  CLOUDY    23  14  68 MISG      30.30S VSB<1/4
COTTONWOOD PAS FAIR      48  27  43 CALM      30.26R
GUNNISON       FAIR      56  27  32 NW22      30.20R
KREMMLING      LGT RAIN  45  37  76 NW15G23   30.27R
LEADVILLE      SNOW      33  31  92 NE8       30.28S VSB 1/2 WCI  26
MONARCH PASS   PTSUNNY   32  27  80 W24G39    30.45R WCI  19
SALIDA         PTSUNNY   60  26  27 NW13      30.23R
SUNLIGHT       TSTM      32  30  93 N5G23     30.37R VSB 1/2 WCI  27
WILKERSON PASS FOG       32  30  93 CALM      30.34S VSB 3/4
$$

COZ069>075-230200-
...SAN LUIS VALLEY/SANGRE DE CRISTO MOUNTAINS...

CITY           SKY/WX    TMP DP  RH WIND       PRES   REMARKS
ALAMOSA        CLOUDY    62  24  23 MISG      30.09S
DEL NORTE      FAIR      61  22  22 NW18G26   30.14R
LA VETA PASS   PTSUNNY   39  34  81 N9        30.35R
SAGUACHE       FAIR      54  28  37 N20G25    30.17S
$$

COZ035-036-038>040-230200-
...NORTHERN COLORADO FRONT RANGE...

CITY           SKY/WX    TMP DP  RH WIND       PRES   REMARKS
DENVER INTL AP RAIN      43  41  93 N12       30.22R FOG
DMNS CITY PARK   N/A     43  41  93 NE6G18    30.24R
AURORA         LGT RAIN  42  42  99 N16G24    30.25R FOG
FRONT RANGE AP CLOUDY    45  43  93 NW16G28   30.23R
ERIE MUNI ARPT LGT RAIN  44  41  91 CALM      30.21F
BOULDER MUN AP LGT RAIN  43  43 100 CALM      30.21S
CENTENNIAL     LGT RAIN  42  40  92 N20G28    30.24R
BROOMFIELD     LGT RAIN  43  41  93 N14G23    30.24R
FORT COLLINS   FAIR      46  41  82 NW7       30.18F
LONGMONT       CLOUDY    47  43  87 E3        30.23F FOG
$$

COZ041-046-047-076>085-087-088-230200-
...PIKES PEAK/PALMER DIVIDE AND SOUTHERN FOOTHILLS...

CITY           SKY/WX    TMP DP  RH WIND       PRES   REMARKS
COLO. SPRINGS  LGT RAIN  52  40  63 N23G29    30.18R
A. F. ACADEMY  LGT RAIN  46  41  81 N18G28    30.20R
SCHRIEVER AFB  PTSUNNY   48  39  71 N25G36    30.18R
CHEYENNE MTN   LGT RAIN  46  40  80 NW21G31   30.12R
ELLICOTT       FAIR     N/A N/A N/A NE23G36   30.15R
FALCON         PTSUNNY   45  38  75 N23G31    30.20R
FORT CARSON    LGT RAIN  51  42  73 N24G35    30.14R
LIMON          LGT RAIN  44  40  85 N32G40    30.16R
MONUMENT HILL  LGT RAIN  36  36 100 N25G37    30.26R
CANON CITY     NOT AVBL
WALSENBURG     FAIR      63  41  45 MISG      30.08R
TRINIDAD       FAIR      62  31  31 E6        30.08R
$$

COZ042>045-048>051-090-091-230200-
...NORTHEAST COLORADO...

CITY           SKY/WX    TMP DP  RH WIND       PRES   REMARKS
GREELEY ARPT   PTSUNNY   48  40  73 NW14      30.19
AKRON          CLOUDY    47  42  83 NW12      30.12S
BURLINGTON     CLOUDY    51  46  83 N17G28    30.10R
WRAY           CLOUDY    54  41  62 NW16      30.09R
YUMA           CLOUDY    46  34  61 W7        30.09F
STERLING       FAIR      52  41  66 N21G29    30.12R
HOLYOKE        NOT AVBL
FORT MORGAN    CLOUDY    47  38  71 NW16G23   30.17R
$$

COZ086-089-092>099-230200-
...SOUTHEAST COLORADO...

CITY           SKY/WX    TMP DP  RH WIND       PRES   REMARKS
PUEBLO         PTSUNNY   61  42  49 N36G41    30.05R
LA JUNTA       FAIR      67  42  40 NW8       30.01R
LAMAR          FAIR      70  40  33 NW5       29.95S
SPRINGFIELD      N/A     62  41  46 N7        30.00F
$$




USA.gov is the U.S. government's official web portal to all federal, state and local government web resources and services.